TimeEDT,TemperatureF,Dew PointF,Humidity,Sea Level PressureIn,VisibilityMPH,Wind Direction,Wind SpeedMPH,Gust SpeedMPH,PrecipitationIn,Events,Conditions,WindDirDegrees,DateUTC
12:15 AM,71.6,69.8,94,29.86,10.0,SE,3.5,-,N/A,,Clear,130,2013-10-07 04:15:00
12:35 AM,71.6,69.8,94,29.86,10.0,ESE,3.5,-,N/A,,Clear,120,2013-10-07 04:35:00
12:53 AM,73.9,71.1,91,29.85,-9999.0,ESE,3.5,-,N/A,,Unknown,120,2013-10-07 04:53:00
12:55 AM,71.6,69.8,94,29.86,10.0,ESE,3.5,-,N/A,,Clear,120,2013-10-07 04:55:00
1:15 AM,71.6,69.8,94,29.86,10.0,ESE,4.6,-,N/A,,Clear,110,2013-10-07 05:15:00
1:35 AM,71.6,69.8,94,29.86,10.0,ESE,5.8,-,N/A,,Clear,110,2013-10-07 05:35:00
1:53 AM,73.9,70.0,87,29.84,-9999.0,ESE,5.8,-,N/A,,Unknown,120,2013-10-07 05:53:00
1:55 AM,71.6,69.8,94,29.86,10.0,ESE,5.8,-,N/A,,Clear,120,2013-10-07 05:55:00
2:15 AM,71.6,69.8,94,29.86,10.0,SE,4.6,-,N/A,,Clear,140,2013-10-07 06:15:00
2:35 AM,71.6,69.8,94,29.84,10.0,ESE,3.5,-,N/A,,Clear,120,2013-10-07 06:35:00
2:53 AM,73.9,70.0,87,29.82,-9999.0,ESE,6.9,-,N/A,,Unknown,120,2013-10-07 06:53:00
2:55 AM,71.6,69.8,94,29.83,10.0,SE,5.8,-,N/A,,Clear,130,2013-10-07 06:55:00
3:15 AM,71.6,69.8,94,29.82,10.0,ESE,4.6,-,N/A,,Clear,110,2013-10-07 07:15:00
3:35 AM,71.6,69.8,94,29.82,10.0,SE,3.5,-,N/A,,Clear,130,2013-10-07 07:35:00
3:53 AM,73.9,70.0,87,29.80,-9999.0,SE,4.6,-,N/A,,Unknown,130,2013-10-07 07:53:00
3:55 AM,71.6,69.8,94,29.82,10.0,SE,3.5,-,N/A,,Clear,130,2013-10-07 07:55:00
4:15 AM,71.6,69.8,94,29.82,10.0,Calm,Calm,-,N/A,,Clear,0,2013-10-07 08:15:00
4:35 AM,71.6,69.8,94,29.80,10.0,ESE,3.5,-,N/A,,Mostly Cloudy,110,2013-10-07 08:35:00
4:53 AM,73.9,70.0,87,29.79,-9999.0,ESE,3.5,-,N/A,,Unknown,120,2013-10-07 08:53:00
4:55 AM,71.6,69.8,94,29.80,10.0,ESE,4.6,-,N/A,,Scattered Clouds,120,2013-10-07 08:55:00
5:15 AM,71.6,69.8,94,29.80,10.0,ESE,4.6,-,N/A,,Clear,120,2013-10-07 09:15:00
5:35 AM,71.6,69.8,94,29.81,10.0,SE,4.6,-,N/A,,Clear,140,2013-10-07 09:35:00
5:53 AM,73.9,70.0,87,29.80,-9999.0,Calm,Calm,-,N/A,,Unknown,0,2013-10-07 09:53:00
5:55 AM,71.6,69.8,94,29.82,10.0,Calm,Calm,-,N/A,Thunderstorm,Scattered Clouds,0,2013-10-07 09:55:00
6:15 AM,71.6,69.8,94,29.81,10.0,Calm,Calm,-,N/A,Rain,Light Rain,0,2013-10-07 10:15:00
6:35 AM,71.6,69.8,94,29.81,7.0,South,3.5,-,0.03,Rain,Heavy Rain,170,2013-10-07 10:35:00
6:53 AM,73.9,71.1,91,29.80,-9999.0,ESE,3.5,-,0.05,,Unknown,120,2013-10-07 10:53:00
6:55 AM,71.6,69.8,94,29.81,10.0,ESE,3.5,-,0.04,Rain,Light Rain,120,2013-10-07 10:55:00
7:15 AM,71.6,69.8,94,29.82,10.0,WSW,4.6,-,N/A,,Scattered Clouds,250,2013-10-07 11:15:00
7:35 AM,71.6,69.8,94,29.83,10.0,Calm,Calm,-,N/A,,Mostly Cloudy,0,2013-10-07 11:35:00
7:53 AM,73.9,71.1,91,29.82,-9999.0,Calm,Calm,-,N/A,,Unknown,0,2013-10-07 11:53:00
7:55 AM,71.6,69.8,94,29.84,7.0,Calm,Calm,-,N/A,,Mostly Cloudy,0,2013-10-07 11:55:00
8:15 AM,71.6,71.6,100,29.84,10.0,Calm,Calm,-,N/A,Rain,Rain,0,2013-10-07 12:15:00
8:35 AM,71.6,71.6,100,29.84,10.0,Calm,Calm,-,N/A,,Overcast,0,2013-10-07 12:35:00
8:53 AM,75.0,71.1,87,29.83,-9999.0,East,4.6,-,N/A,,Unknown,100,2013-10-07 12:53:00
8:55 AM,73.4,71.6,94,29.84,10.0,East,4.6,-,N/A,,Overcast,100,2013-10-07 12:55:00
9:15 AM,73.4,71.6,94,29.83,10.0,ESE,4.6,-,N/A,,Overcast,120,2013-10-07 13:15:00
9:35 AM,73.4,71.6,94,29.84,10.0,SE,5.8,-,N/A,,Scattered Clouds,130,2013-10-07 13:35:00
9:53 AM,77.0,71.1,82,29.82,-9999.0,SE,5.8,-,N/A,,Unknown,130,2013-10-07 13:53:00
9:55 AM,73.4,71.6,94,29.84,10.0,SE,5.8,-,N/A,,Clear,130,2013-10-07 13:55:00
10:15 AM,75.2,69.8,83,29.84,10.0,SSE,3.5,-,N/A,,Clear,150,2013-10-07 14:15:00
10:35 AM,77.0,71.6,83,29.83,10.0,ESE,3.5,-,N/A,,Clear,110,2013-10-07 14:35:00
10:53 AM,82.0,73.0,74,29.82,-9999.0,SE,6.9,-,N/A,,Unknown,130,2013-10-07 14:53:00
10:55 AM,78.8,71.6,78,29.84,10.0,SE,5.8,-,N/A,,Clear,130,2013-10-07 14:55:00
11:15 AM,78.8,71.6,78,29.83,10.0,SE,5.8,-,N/A,,Scattered Clouds,140,2013-10-07 15:15:00
11:35 AM,80.6,69.8,70,29.83,10.0,Calm,Calm,-,N/A,,Scattered Clouds,0,2013-10-07 15:35:00
11:53 AM,82.9,71.1,67,29.81,-9999.0,Calm,Calm,-,N/A,,Unknown,0,2013-10-07 15:53:00
11:55 AM,80.6,69.8,70,29.82,10.0,Calm,Calm,-,N/A,,Scattered Clouds,0,2013-10-07 15:55:00
12:15 PM,80.6,69.8,70,29.82,10.0,Calm,Calm,-,N/A,,Scattered Clouds,0,2013-10-07 16:15:00
12:35 PM,82.4,69.8,66,29.81,10.0,North,4.6,-,N/A,,Scattered Clouds,10,2013-10-07 16:35:00
12:53 PM,84.9,72.0,65,29.79,-9999.0,Calm,Calm,-,N/A,,Unknown,0,2013-10-07 16:53:00
12:55 PM,82.4,69.8,66,29.81,10.0,East,3.5,-,N/A,,Clear,100,2013-10-07 16:55:00
1:15 PM,82.4,69.8,66,29.79,10.0,ENE,4.6,-,N/A,,Clear,60,2013-10-07 17:15:00
1:35 PM,86.0,69.8,58,29.79,10.0,ENE,3.5,-,N/A,,Clear,70,2013-10-07 17:35:00
1:53 PM,86.0,71.1,61,29.77,-9999.0,ENE,4.6,-,N/A,,Unknown,60,2013-10-07 17:53:00
1:55 PM,84.2,69.8,62,29.78,10.0,ENE,4.6,-,N/A,,Scattered Clouds,60,2013-10-07 17:55:00
2:15 PM,82.4,69.8,66,29.77,10.0,NE,4.6,-,N/A,,Mostly Cloudy,50,2013-10-07 18:15:00
2:35 PM,82.4,69.8,66,29.77,10.0,NNE,4.6,-,N/A,,Mostly Cloudy,30,2013-10-07 18:35:00
2:53 PM,84.9,71.1,63,29.75,-9999.0,NNE,3.5,-,N/A,,Unknown,20,2013-10-07 18:53:00
2:55 PM,82.4,69.8,66,29.76,10.0,NNE,3.5,-,N/A,,Mostly Cloudy,30,2013-10-07 18:55:00
3:15 PM,82.4,69.8,66,29.76,10.0,ENE,3.5,-,N/A,,Mostly Cloudy,60,2013-10-07 19:15:00
3:35 PM,82.4,69.8,66,29.75,10.0,NE,4.6,-,N/A,,Scattered Clouds,50,2013-10-07 19:35:00
3:53 PM,86.0,70.0,59,29.75,-9999.0,NE,3.5,-,N/A,,Unknown,50,2013-10-07 19:53:00
3:55 PM,82.4,69.8,66,29.76,10.0,NNE,4.6,-,N/A,,Scattered Clouds,30,2013-10-07 19:55:00
4:15 PM,84.2,69.8,62,29.76,10.0,North,3.5,-,N/A,,Mostly Cloudy,10,2013-10-07 20:15:00
4:35 PM,82.4,69.8,66,29.77,10.0,NNW,6.9,-,N/A,,Overcast,330,2013-10-07 20:35:00
4:53 PM,82.9,73.0,72,29.75,-9999.0,Calm,Calm,-,N/A,,Unknown,0,2013-10-07 20:53:00
4:55 PM,80.6,71.6,74,29.77,10.0,NNE,3.5,-,N/A,,Mostly Cloudy,20,2013-10-07 20:55:00
5:15 PM,80.6,71.6,74,29.76,10.0,Calm,Calm,-,N/A,,Scattered Clouds,0,2013-10-07 21:15:00
5:35 PM,82.4,71.6,70,29.77,10.0,NNE,3.5,-,N/A,Rain,Light Rain,30,2013-10-07 21:35:00
5:53 PM,87.1,70.0,57,29.75,-9999.0,North,5.8,-,N/A,,Unknown,360,2013-10-07 21:53:00
5:55 PM,84.2,69.8,62,29.77,10.0,North,5.8,-,N/A,,Scattered Clouds,360,2013-10-07 21:55:00
6:15 PM,82.4,69.8,66,29.77,10.0,North,4.6,-,N/A,,Mostly Cloudy,350,2013-10-07 22:15:00
6:35 PM,82.4,71.6,70,29.78,10.0,Calm,Calm,-,N/A,,Overcast,0,2013-10-07 22:35:00
6:53 PM,84.0,70.0,63,29.77,-9999.0,Calm,Calm,-,N/A,,Unknown,0,2013-10-07 22:53:00
6:55 PM,82.4,69.8,66,29.78,10.0,Calm,Calm,-,N/A,,Overcast,0,2013-10-07 22:55:00
7:15 PM,80.6,69.8,70,29.79,10.0,Calm,Calm,-,N/A,,Scattered Clouds,0,2013-10-07 23:15:00
7:35 PM,78.8,71.6,78,29.79,10.0,North,5.8,-,N/A,,Mostly Cloudy,360,2013-10-07 23:35:00
7:53 PM,81.0,71.1,72,29.79,-9999.0,North,5.8,-,N/A,,Unknown,10,2013-10-07 23:53:00
7:55 PM,78.8,71.6,78,29.80,10.0,North,4.6,-,N/A,,Overcast,10,2013-10-07 23:55:00
8:15 PM,78.8,71.6,78,29.81,10.0,NNE,3.5,-,N/A,,Mostly Cloudy,30,2013-10-08 00:15:00
8:35 PM,77.0,71.6,83,29.82,10.0,Calm,Calm,-,N/A,,Mostly Cloudy,0,2013-10-08 00:35:00
8:53 PM,79.0,72.0,79,29.82,-9999.0,North,5.8,-,N/A,,Unknown,350,2013-10-08 00:53:00
8:55 PM,77.0,71.6,83,29.83,10.0,North,4.6,-,N/A,,Overcast,350,2013-10-08 00:55:00
9:15 PM,77.0,71.6,83,29.84,10.0,North,3.5,-,N/A,,Overcast,10,2013-10-08 01:15:00
9:35 PM,77.0,71.6,83,29.84,10.0,North,5.8,-,N/A,,Overcast,10,2013-10-08 01:35:00
9:53 PM,79.0,70.0,74,29.84,-9999.0,North,9.2,-,N/A,,Unknown,10,2013-10-08 01:53:00
9:55 PM,77.0,69.8,78,29.85,10.0,NNE,9.2,-,N/A,,Overcast,20,2013-10-08 01:55:00
10:15 PM,77.0,69.8,78,29.86,10.0,NNE,6.9,-,N/A,,Overcast,30,2013-10-08 02:15:00
10:35 PM,77.0,69.8,78,29.86,10.0,NNE,6.9,-,N/A,,Overcast,30,2013-10-08 02:35:00
10:53 PM,77.0,69.1,76,29.85,-9999.0,North,8.1,-,N/A,,Unknown,10,2013-10-08 02:53:00
10:55 PM,75.2,69.8,83,29.86,10.0,North,5.8,-,N/A,,Mostly Cloudy,10,2013-10-08 02:55:00
11:15 PM,73.4,69.8,88,29.86,10.0,North,3.5,-,N/A,,Scattered Clouds,360,2013-10-08 03:15:00
11:35 PM,73.4,69.8,88,29.86,10.0,NNE,3.5,-,N/A,,Mostly Cloudy,20,2013-10-08 03:35:00
11:53 PM,75.9,69.1,79,29.85,-9999.0,NNE,5.8,-,N/A,,Unknown,20,2013-10-08 03:53:00
11:55 PM,73.4,69.8,88,29.86,10.0,NNE,5.8,-,N/A,,Mostly Cloudy,20,2013-10-08 03:55:00